Tracking 22879 objects as of 21-Apr-2021
HD Live streaming from Space Station
objects crossing your sky now

POLAR SCOUT YUKON

Track POLAR SCOUT YUKON now!
10-day predictions


NORAD ID: 43808
Int'l Code: 2018-099BC
Perigee: 578.8 km
Apogee: 594.2 km
Inclination: 97.7 °
Period: 96.3 minutes
Semi major axis: 6957 km
RCS: Unknown
Launch date: December 3, 2018
Source: United States (US)
Launch site: AIR FORCE WESTERN TEST RANGE (AFWTR)
aabbcc
Your satellite tracking list
Your tracking list is empty




NASA's NSSDC Master Catalog

Two Line Element Set (TLE):
1 43808U 18099BC  21111.45376404  .00000434  00000-0  43779-4 0  9994
2 43808  97.6700 183.8088 0011044 243.4387 116.5703 14.95963552129689
Source of the keplerian elements: AFSPC